EW7351 Weather Reports


time (UTC)temp
C
wind
direction
speed
KPH
gust
KPH
rain 1hr
cm
rain 24hr
cm
rain mn
cm
humidity
%
barometer
mb
20260905223719 38 152 0.0 6.4 0.00 0.00 0.00 33 1009.1
20260905223219 37 80 0.0 1.6 0.00 0.00 0.00 35 1009.1
20260905222718 37 95 1.6 12.9 0.00 0.00 0.00 36 1009.2
20260905222218 37 245 3.2 12.9 0.00 0.00 0.00 35 1009.2
20260905221945 37 228 4.8 11.3 0.00 0.00 0.00 36 1009.1
20260905221220 37 120 3.2 14.5 0.00 0.00 0.00 35 1009.1
20260905220704 37 105 3.2 14.5 0.00 0.00 0.00 34 1009.2
20260905220202 37 89 4.8 9.7 0.00 0.00 0.00 35 1009.3
20260905215700 37 214 3.2 11.3 0.00 0.00 0.00 35 1009.3
20260905215143 38 123 4.8 12.9 0.00 0.00 0.00 34 1009.4
20260905214846 38 143 4.8 17.7 0.00 0.00 0.00 33 1009.4
20260905214109 38 119 1.6 17.7 0.00 0.00 0.00 33 1009.4
20260905213823 38 106 0.0 9.7 0.00 0.00 0.00 34 1009.4
20260905213106 38 160 1.6 9.7 0.00 0.00 0.00 36 1009.5
20260905212605 37 159 3.2 9.7 0.00 0.00 0.00 34 1009.6
20260905212103 37 124 3.2 9.7 0.00 0.00 0.00 34 1009.6
20260905211540 37 113 3.2 11.3 0.00 0.00 0.00 37 1009.6
20260905211016 36 88 3.2 9.7 0.00 0.00 0.00 37 1009.7
20260905210515 37 4 3.2 9.7 0.00 0.00 0.00 35 1009.9
20260905205959 37 134 1.6 8.0 0.00 0.00 0.00 35 1009.9
20260905205456 37 347 1.6 11.3 0.00 0.00 0.00 35 1010.0
20260905204959 37 108 1.6 11.3 0.00 0.00 0.00 35 1010.1
20260905204434 37 17 3.2 8.0 0.00 0.00 0.00 36 1010.2
20260905203907 37 127 4.8 14.5 0.00 0.00 0.00 36 1010.2
20260905203635 37 185 3.2 14.5 0.00 0.00 0.00 36 1010.3
20260905202844 37 136 1.6 9.7 0.00 0.00 0.00 37 1010.3
20260905202351 37 325 3.2 9.7 0.00 0.00 0.00 34 1010.5
20260905201827 37 107 3.2 12.9 0.00 0.00 0.00 35 1010.5
20260905201326 37 243 4.8 12.9 0.00 0.00 0.00 36 1010.5
20260905201044 38 205 1.6 9.7 0.00 0.00 0.00 33 1010.6
20260905200327 38 115 1.6 6.4 0.00 0.00 0.00 34 1010.7
20260905195813 37 114 1.6 6.4 0.00 0.00 0.00 36 1010.7
20260905195300 37 137 3.2 8.0 0.00 0.00 0.00 36 1010.8
20260905194800 37 75 3.2 9.7 0.00 0.00 0.00 35 1010.9
20260905194257 37 214 3.2 11.3 0.00 0.00 0.00 36 1010.9
20260905194023 37 128 3.2 11.3 0.00 0.00 0.00 34 1011.0
20260905193230 37 129 1.6 9.7 0.00 0.00 0.00 35 1011.1
20260905192732 36 146 1.6 11.3 0.00 0.00 0.00 36 1011.2
20260905192209 36 52 3.2 11.3 0.00 0.00 0.00 37 1011.3
20260905191710 36 127 4.8 12.9 0.00 0.00 0.00 39 1011.4
20260905191416 36 220 3.2 12.9 0.00 0.00 0.00 37 1011.5
20260905190642 37 125 1.6 9.7 0.00 0.00 0.00 38 1011.7
20260905185612 36 186 1.6 8.0 0.00 0.00 0.00 37 1012.0
20260905185049 36 91 3.2 12.9 0.00 0.00 0.00 40 1012.1
20260905184538 36 136 4.8 12.9 0.00 0.00 0.00 40 1012.2
20260905184040 36 153 4.8 12.9 0.00 0.00 0.00 40 1012.2
20260905183753 36 165 4.8 12.9 0.00 0.00 0.00 39 1012.3
20260905183004 36 217 3.2 12.9 0.00 0.00 0.00 40 1012.3
20260905182505 36 124 3.2 8.0 0.00 0.00 0.00 39 1012.5
20260905182007 36 200 3.2 12.9 0.00 0.00 0.00 39 1012.6
20260905181724 36 124 3.2 12.9 0.00 0.00 0.00 38 1012.6
20260905181004 36 261 3.2 12.9 0.00 0.00 0.00 38 1012.6
20260905180436 36 118 3.2 12.9 0.00 0.00 0.00 38 1012.8
20260905175912 36 127 3.2 9.7 0.00 0.00 0.00 39 1012.9
20260905175344 36 51 3.2 12.9 0.00 0.00 0.00 39 1012.9
20260905174818 36 143 3.2 12.9 0.00 0.00 0.00 40 1013.0
20260905174251 36 129 3.2 11.3 0.00 0.00 0.00 41 1013.1
20260905173746 36 231 3.2 11.3 0.00 0.00 0.00 39 1013.1
20260905173443 36 141 3.2 9.7 0.00 0.00 0.00 40 1013.1
20260905172715 36 142 3.2 11.3 0.00 0.00 0.00 41 1013.2
20260905172150 35 129 4.8 12.9 0.00 0.00 0.00 41 1013.2
20260905171648 35 137 1.6 12.9 0.00 0.00 0.00 41 1013.3
20260905171133 35 90 1.6 11.3 0.00 0.00 0.00 41 1013.3
20260905170604 35 114 3.2 14.5 0.00 0.00 0.00 42 1013.4
20260905170105 35 130 4.8 14.5 0.00 0.00 0.00 43 1013.4
20260905170028 35 155 4.8 12.9 0.00 0.00 0.00 43 1013.4
20260905165044 35 236 1.6 12.9 0.00 0.00 0.00 44 1013.4
20260905164542 36 142 0.0 12.9 0.00 0.00 0.00 43 1013.4
20260905164306 35 213 0.0 8.0 0.00 0.00 0.00 45 1013.5
20260905163514 35 281 1.6 8.0 0.00 0.00 0.00 46 1013.5
20260905163005 35 278 0.0 4.8 0.00 0.00 0.00 46 1013.5
20260905162503 35 25 0.0 4.8 0.00 0.00 0.00 44 1013.5
20260905161936 35 285 0.0 4.8 0.00 0.00 0.00 46 1013.4
20260905161408 35 34 0.0 4.8 0.00 0.00 0.00 48 1013.5
20260905160907 34 239 0.0 4.8 0.00 0.00 0.00 47 1013.5
20260905160339 34 72 0.0 3.2 0.00 0.00 0.00 48 1013.5
20260905155836 33 345 0.0 3.2 0.00 0.00 0.00 49 1013.5
20260905155556 33 357 0.0 6.4 0.00 0.00 0.00 48 1013.5
20260905154809 33 129 1.6 6.4 0.00 0.00 0.00 51 1013.5
20260905154241 33 207 1.6 8.0 0.00 0.00 0.00 50 1013.5
20260905153718 33 265 0.0 8.0 0.00 0.00 0.00 51 1013.5
20260905153412 33 261 0.0 4.8 0.00 0.00 0.00 50 1013.5
20260905152621 33 255 0.0 4.8 0.00 0.00 0.00 51 1013.6
20260905152115 33 19 0.0 3.2 0.00 0.00 0.00 54 1013.5
20260905151808 32 277 1.6 8.0 0.00 0.00 0.00 54 1013.5
20260905151018 32 146 3.2 8.0 0.00 0.00 0.00 55 1013.3
20260905150453 32 237 3.2 8.0 0.00 0.00 0.00 56 1013.3
20260905145952 31 198 1.6 8.0 0.00 0.00 0.00 56 1013.2
20260905145444 31 243 1.6 8.0 0.00 0.00 0.00 56 1013.2
20260905144940 31 188 1.6 6.4 0.00 0.00 0.00 58 1013.2
20260905144439 31 250 0.0 6.4 0.00 0.00 0.00 59 1013.2
20260905143912 31 230 1.6 6.4 0.00 0.00 0.00 60 1013.2
20260905143346 30 250 1.6 8.0 0.00 0.00 0.00 61 1013.2
20260905142821 30 269 1.6 8.0 0.00 0.00 0.00 60 1013.3
20260905142320 30 316 1.6 9.7 0.00 0.00 0.00 63 1013.3
20260905141822 30 217 0.0 9.7 0.00 0.00 0.00 62 1013.3
20260905141545 30 228 0.0 4.8 0.00 0.00 0.00 63 1013.3
20260905140813 30 257 1.6 6.4 0.00 0.00 0.00 63 1013.3
20260905140512 29 136 1.6 6.4 0.00 0.00 0.00 64 1013.3
20260905135720 29 237 0.0 6.4 0.00 0.00 0.00 64 1013.3
20260905135219 28 154 0.0 4.8 0.00 0.00 0.00 67 1013.3
20260905134650 28 124 1.6 4.8 0.00 0.00 0.00 68 1013.2
20260905134149 28 218 0.0 4.8 0.00 0.00 0.00 69 1013.1
20260905133642 27 155 0.0 3.2 0.00 0.00 0.00 70 1013.1
20260905133404 27 129 0.0 0.0 0.00 0.00 0.00 71 1013.1
20260905132832 27 154 0.0 0.0 0.00 0.00 0.00 71 1013.1
20260905132111 27 244 0.0 0.0 0.00 0.00 0.00 72 1013.0
20260905131542 27 244 0.0 0.0 0.00 0.00 0.00 72 1013.1
20260905131042 26 229 0.0 0.0 0.00 0.00 0.00 73 1013.0
20260905130758 26 226 0.0 3.2 0.00 0.00 0.00 74 1013.0
20260905130034 26 226 0.0 3.2 0.00 0.00 0.00 74 1012.9
20260905125529 26 118 0.0 3.2 0.00 0.00 0.00 75 1012.7
20260905125010 26 236 0.0 3.2 0.00 0.00 0.00 76 1012.6
20260905124438 25 131 0.0 3.2 0.00 0.00 0.00 77 1012.5
20260905123910 25 122 0.0 3.2 0.00 0.00 0.00 79 1012.4
20260905123406 24 243 0.0 0.0 0.00 0.00 0.00 80 1012.4
20260905122904 24 255 0.0 0.0 0.00 0.00 0.00 80 1012.5
20260905122402 24 255 0.0 0.0 0.00 0.00 0.00 80 1012.5
20260905121839 24 255 0.0 0.0 0.00 0.00 0.00 79 1012.6
20260905121307 24 255 0.0 0.0 0.00 0.00 0.00 79 1012.5
20260905120803 24 254 0.0 0.0 0.00 0.00 0.00 79 1012.6
20260905120239 24 254 0.0 0.0 0.00 0.00 0.00 78 1012.5
20260905115713 24 255 0.0 0.0 0.00 0.00 0.00 79 1012.6
20260905115144 24 255 0.0 0.0 0.00 0.00 0.00 79 1012.6
20260905114640 24 255 0.0 0.0 0.00 0.00 0.00 78 1012.6
20260905114343 24 255 0.0 0.0 0.00 0.00 0.00 78 1012.5
20260905113551 24 255 0.0 0.0 0.00 0.00 0.00 77 1012.5
20260905113036 24 255 0.0 0.0 0.00 0.00 0.00 76 1012.5
20260905112535 25 255 0.0 0.0 0.00 0.00 0.00 76 1012.6
20260905112036 25 255 0.0 0.0 0.00 0.00 0.00 77 1012.5
20260905111535 24 255 0.0 0.0 0.00 0.00 0.00 76 1012.6
20260905111033 24 255 0.0 0.0 0.00 0.00 0.00 76 1012.5
20260905110528 25 255 0.0 0.0 0.00 0.00 0.00 74 1012.4
20260905110026 25 255 0.0 0.0 0.00 0.00 0.00 74 1012.3
20260905105528 25 255 0.0 0.0 0.00 0.00 0.00 74 1012.3
20260905105002 25 255 0.0 0.0 0.00 0.00 0.00 73 1012.4
20260905104506 25 255 0.0 0.0 0.00 0.00 0.00 73 1012.3
20260905103936 25 255 0.0 0.0 0.00 0.00 0.00 72 1012.4
20260905103912 26 254 0.0 0.0 0.00 0.00 0.00 71 1012.4
20260905102920 26 255 0.0 0.0 0.00 0.00 0.00 70 1012.4
20260905102418 26 255 0.0 0.0 0.00 0.00 0.00 69 1012.4
20260905101916 26 254 0.0 0.0 0.00 0.00 0.00 69 1012.4
20260905101415 26 254 0.0 0.0 0.00 0.00 0.00 69 1012.3
20260905100914 26 255 0.0 0.0 0.00 0.00 0.00 69 1012.2
20260905100413 26 255 0.0 0.0 0.00 0.00 0.00 69 1012.3
20260905095912 26 255 0.0 0.0 0.00 0.00 0.00 69 1012.3
20260905095414 26 255 0.0 3.2 0.00 0.00 0.00 69 1012.2
20260905094908 26 255 0.0 3.2 0.00 0.00 0.00 69 1012.1
20260905094633 26 159 0.0 3.2 0.00 0.00 0.00 69 1012.1
20260905093910 26 229 0.0 3.2 0.00 0.00 0.00 70 1012.1
20260905093604 26 240 0.0 0.0 0.00 0.00 0.00 71 1012.2
20260905092839 26 240 0.0 0.0 0.00 0.00 0.00 71 1012.2
20260905092342 26 195 0.0 0.0 0.00 0.00 0.00 73 1012.1
20260905091815 25 219 0.0 0.0 0.00 0.00 0.00 74 1012.1
20260905091313 25 219 0.0 0.0 0.00 0.00 0.00 74 1012.1
20260905091037 25 219 0.0 0.0 0.00 0.00 0.00 73 1012.1
20260905090312 26 219 0.0 0.0 0.00 0.00 0.00 72 1012.1
20260905085810 26 219 0.0 0.0 0.00 0.00 0.00 72 1012.0
20260905085309 26 219 0.0 0.0 0.00 0.00 0.00 72 1011.9
20260905084811 26 219 0.0 0.0 0.00 0.00 0.00 71 1011.7
20260905084250 26 219 0.0 0.0 0.00 0.00 0.00 70 1011.7
20260905083723 27 219 0.0 0.0 0.00 0.00 0.00 69 1011.7
20260905083223 27 219 0.0 0.0 0.00 0.00 0.00 68 1011.6
20260905082703 27 219 0.0 0.0 0.00 0.00 0.00 67 1011.5
20260905082201 27 219 0.0 0.0 0.00 0.00 0.00 67 1011.6
20260905081640 27 219 0.0 0.0 0.00 0.00 0.00 67 1011.5
20260905081115 27 219 0.0 0.0 0.00 0.00 0.00 67 1011.6
20260905080554 27 215 0.0 0.0 0.00 0.00 0.00 67 1011.6
20260905080032 27 184 0.0 0.0 0.00 0.00 0.00 67 1011.5
20260905075514 27 270 0.0 4.8 0.00 0.00 0.00 67 1011.6
20260905074953 27 252 0.0 4.8 0.00 0.00 0.00 67 1011.6
20260905074453 27 114 0.0 3.2 0.00 0.00 0.00 68 1011.6
20260905073951 27 123 0.0 3.2 0.00 0.00 0.00 68 1011.7
20260905073452 27 211 0.0 1.6 0.00 0.00 0.00 68 1011.7
20260905072948 27 221 0.0 0.0 0.00 0.00 0.00 68 1011.9
20260905072706 27 226 0.0 0.0 0.00 0.00 0.00 67 1012.0
20260905072142 27 226 0.0 0.0 0.00 0.00 0.00 66 1012.1
20260905071639 27 226 0.0 0.0 0.00 0.00 0.00 66 1012.2
20260905070920 27 226 0.0 0.0 0.00 0.00 0.00 66 1012.3
20260905070415 27 226 0.0 0.0 0.00 0.00 0.00 65 1012.3
20260905070125 28 226 0.0 0.0 0.00 0.00 0.00 64 1012.3
20260905065346 28 226 0.0 0.0 0.00 0.00 0.00 64 1012.3
20260905064843 28 226 0.0 0.0 0.00 0.00 0.00 63 1012.3
20260905064825 28 226 0.0 0.0 0.00 0.00 0.00 62 1012.3
20260905063819 28 226 0.0 0.0 0.00 0.00 0.00 62 1012.3
20260905063252 28 226 0.0 3.2 0.00 0.00 0.00 61 1012.4
20260905062726 28 226 0.0 1.6 0.00 0.00 0.00 61 1012.3
20260905062213 28 195 0.0 3.2 0.00 0.00 0.00 61 1012.4
20260905061714 28 217 0.0 1.6 0.00 0.00 0.00 61 1012.3
20260905061149 29 215 0.0 0.0 0.00 0.00 0.00 60 1012.3
20260905060621 29 215 0.0 1.6 0.00 0.00 0.00 60 1012.3
20260905060123 29 215 0.0 3.2 0.00 0.00 0.00 60 1012.3
20260905055553 29 152 0.0 3.2 0.00 0.00 0.00 59 1012.2
20260905055052 29 266 0.0 4.8 0.00 0.00 0.00 59 1012.2
20260905054546 29 222 1.6 9.7 0.00 0.00 0.00 59 1012.1
20260905054022 29 248 1.6 9.7 0.00 0.00 0.00 59 1012.1
20260905053455 29 193 1.6 6.4 0.00 0.00 0.00 58 1012.0
20260905052927 30 122 1.6 6.4 0.00 0.00 0.00 58 1011.9
20260905052423 30 153 1.6 8.0 0.00 0.00 0.00 58 1011.9
20260905051920 30 229 1.6 9.7 0.00 0.00 0.00 58 1011.9
20260905051419 30 210 1.6 9.7 0.00 0.00 0.00 58 1011.7
20260905050852 30 177 1.6 4.8 0.00 0.00 0.00 58 1011.7
20260905050325 30 215 1.6 4.8 0.00 0.00 0.00 58 1011.6
20260905045758 30 235 1.6 6.4 0.00 0.00 0.00 58 1011.6
20260905045520 30 259 0.0 6.4 0.00 0.00 0.00 57 1011.7
20260905044747 30 149 1.6 4.8 0.00 0.00 0.00 57 1011.9
20260905044243 30 125 1.6 8.0 0.00 0.00 0.00 56 1011.9
20260905044003 30 160 3.2 9.7 0.00 0.00 0.00 56 1011.9
20260905043215 30 223 3.2 9.7 0.00 0.00 0.00 55 1011.9
20260905043151 30 148 3.2 9.7 0.00 0.00 0.00 55 1011.7
20260905042206 30 248 1.6 6.4 0.00 0.00 0.00 54 1011.7
20260905041637 30 233 3.2 8.0 0.00 0.00 0.00 54 1011.7
20260905041133 30 220 3.2 8.0 0.00 0.00 0.00 54 1011.9
20260905040631 30 165 1.6 9.7 0.00 0.00 0.00 54 1011.7
20260905040129 30 162 1.6 9.7 0.00 0.00 0.00 54 1011.9
20260905035628 30 161 1.6 6.4 0.00 0.00 0.00 55 1012.0
20260905035324 31 219 1.6 6.4 0.00 0.00 0.00 55 1012.0
20260905035040 31 136 1.6 8.0 0.00 0.00 0.00 55 1012.0
20260905034252 31 164 0.0 4.8 0.00 0.00 0.00 55 1011.9
20260905033744 31 115 0.0 4.8 0.00 0.00 0.00 55 1011.9
20260905033025 31 110 0.0 4.8 0.00 0.00 0.00 55 1011.9
20260905032457 31 124 0.0 4.8 0.00 0.00 0.00 55 1011.9
20260905032225 31 119 0.0 4.8 0.00 0.00 0.00 54 1011.7
20260905031650 31 127 0.0 6.4 0.00 0.00 0.00 53 1011.7
20260905030924 31 139 1.6 6.4 0.00 0.00 0.00 53 1011.7
20260905030357 31 148 1.6 3.2 0.00 0.00 0.00 52 1011.7
20260905025829 31 111 1.6 8.0 0.00 0.00 0.00 50 1011.7
20260905025329 31 117 1.6 8.0 0.00 0.00 0.00 50 1011.6
20260905024801 31 100 0.0 4.8 0.00 0.00 0.00 50 1011.5
20260905024258 31 119 0.0 4.8 0.00 0.00 0.00 49 1011.5
20260905023755 31 124 0.0 6.4 0.00 0.00 0.00 49 1011.4
20260905023544 31 139 1.6 6.4 0.00 0.00 0.00 49 1011.3
20260905023445 31 141 1.6 8.0 0.00 0.00 0.00 49 1011.3
20260905022223 31 129 1.6 8.0 0.00 0.00 0.00 49 1011.1
20260905021655 32 131 0.0 6.4 0.00 0.00 0.00 49 1011.1
20260905021637 32 131 0.0 3.2 0.00 0.00 0.00 49 1011.0
20260905020627 32 131 0.0 4.8 0.00 0.00 0.00 49 1010.9
20260905020116 32 131 0.0 4.8 0.00 0.00 0.00 49 1010.8
20260905015615 32 135 1.6 6.4 0.00 0.00 0.00 49 1010.7
20260905015115 32 150 1.6 6.4 0.00 0.00 0.00 49 1010.7
20260905014756 32 117 0.0 8.0 0.00 0.00 0.00 48 1010.6
20260905014646 32 137 1.6 8.0 0.00 0.00 0.00 48 1010.6
20260905013604 32 139 1.6 6.4 0.00 0.00 0.00 47 1010.5
20260905013105 32 108 1.6 9.7 0.00 0.00 0.00 46 1010.5
20260905012541 32 144 1.6 9.7 0.00 0.00 0.00 46 1010.5
20260905012044 33 139 1.6 8.0 0.00 0.00 0.00 45 1010.5
20260905011539 33 132 1.6 8.0 0.00 0.00 0.00 44 1010.5
20260905011042 33 143 1.6 8.0 0.00 0.00 0.00 44 1010.3
20260905010741 33 129 3.2 8.0 0.00 0.00 0.00 43 1010.3
20260905005955 33 131 3.2 8.0 0.00 0.00 0.00 43 1010.3
20260905005449 33 121 3.2 8.0 0.00 0.00 0.00 42 1010.1
20260905004931 33 99 4.8 8.0 0.00 0.00 0.00 42 1010.1
20260905004431 33 132 3.2 9.7 0.00 0.00 0.00 41 1010.1
20260905003905 34 150 3.2 11.3 0.00 0.00 0.00 41 1010.1
20260905003353 34 139 4.8 14.5 0.00 0.00 0.00 40 1010.1
20260905003109 34 120 4.8 14.5 0.00 0.00 0.00 40 1010.1
20260905002353 35 110 3.2 11.3 0.00 0.00 0.00 40 1010.0
20260905001825 35 155 3.2 11.3 0.00 0.00 0.00 40 1009.9
20260905001312 35 158 3.2 11.3 0.00 0.00 0.00 39 1009.9
20260905000748 35 108 3.2 11.3 0.00 0.00 0.00 38 1009.9
20260905000248 35 139 4.8 11.3 0.00 0.00 0.00 38 1009.9
20260904235748 35 122 4.8 11.3 0.00 0.00 0.00 38 1009.8
20260904235504 35 111 4.8 12.9 0.00 0.00 0.00 38 1009.9
20260904234746 35 176 6.4 12.9 0.00 0.00 0.00 38 1009.9
20260904234507 35 115 4.8 12.9 0.00 0.00 0.00 38 1009.8
20260904233742 35 125 4.8 12.9 0.00 0.00 0.00 38 1009.8
20260904233245 36 159 4.8 12.9 0.00 0.00 0.00 38 1009.8
20260904232720 36 127 4.8 12.9 0.00 0.00 0.00 38 1009.8
20260904232219 36 186 4.8 12.9 0.00 0.00 0.00 38 1009.7
20260904231654 36 143 4.8 12.9 0.00 0.00 0.00 38 1009.8
20260904231126 36 139 6.4 16.1 0.00 0.00 0.00 38 1009.8
20260904230623 36 152 8.0 17.7 0.00 0.00 0.00 37 1009.8
20260904230053 36 103 6.4 12.9 0.00 0.00 0.00 37 1009.8
20260904225534 36 113 6.4 14.5 0.00 0.00 0.00 38 1009.8
20260904225034 36 113 6.4 16.1 0.00 0.00 0.00 37 1009.9
20260904224532 36 229 6.4 16.1 0.00 0.00 0.00 37 1009.9
20260904224030 36 129 4.8 14.5 0.00 0.00 0.00 38 1009.9